Weather History for KMMH - August, 2013

Change the Weather History Date:

Saturday, August 10, 2013

  Actual Average (KBIH) Record (KBIH)
Temperature  
Mean Temperature 55 °F 76 °F  
Max Temperature 77 °F 97 °F 105 °F (1971)
Min Temperature 33 °F 55 °F 43 °F (1950)
Degree Days  
Heating Degree Days 10 0  
Month to date heating degree days 0  
Since 1 June heating degree days 20  
Since 1 July heating degree days 1  
Cooling Degree Days 0 11  
Month to date cooling degree days 117  
Year to date cooling degree days 781  
Since 1 June cooling degree days 713  
Growing Degree Days 5 (Base 50)    
Moisture  
Dew Point 28 °F    
Average Humidity 38    
Maximum Humidity 75    
Minimum Humidity 13    
Precipitation  
Precipitation 0.00 in 0.00 in 0.06 in (1961)
Month to date precipitation 0.04  
Year to date precipitation 3.28  
Snow  
Snow 0.00 in 0.00 in - ()
Month to date snowfall 0.0  
Since 1 June snowfall 0.0  
Since 1 July snowfall 0.0  
Snow Depth -    
Sea Level Pressure  
Sea Level Pressure 30.21 in    
Wind  
Wind Speed 3 mph (ESE)    
Max Wind Speed 23 mph    
Max Gust Speed 32 mph    
Visibility 10 miles    
Events      
T = Trace of Precipitation, MM = Missing Value Source: NWS Daily Summary

Daily Weather History Graph

Daily Weather History Graph

Search for Another Location

Airport or City:

Trip Planner

Search our weather history database for the weather conditions in past years. The results will help you decide how hot, cold, wet, or windy it might be!

Date:

Astronomy

Aug. 10, 2013 Rise Set
Actual Time 6:07 AM PDT 7:53 PM PDT
Civil Twilight 5:38 AM PDT 8:21 PM PDT
Nautical Twilight 5:04 AM PDT 8:55 PM PDT
Astronomical Twilight 4:28 AM PDT 9:32 PM PDT
Moon 9:52 AM PDT (8/10) 9:44 PM PDT (8/10)
Length of Visible Light 14h 42m
Length of Day
13h 46m
Waxing Crescent, 15% of the Moon is Illuminated
Aug 10
Waxing Crescent
Aug 14
First Quarter
Aug 20
Full
Aug 28
Last Quarter
Sep 5
New

Hourly Weather History & Observations

Time (PDT) Temp. Windchill Dew Point Humidity Pressure Visibility Wind Dir Wind Speed Gust Speed Precip Events Conditions
12:15 AM 50.0 °F - 30.2 °F 47% 30.20 in 10.0 mi Calm Calm - N/A   Clear
12:35 AM 50.0 °F - 30.2 °F 47% 30.20 in 10.0 mi SSW 3.5 mph - N/A   Clear
12:55 AM 46.4 °F - 30.2 °F 53% 30.20 in 10.0 mi Calm Calm - N/A   Clear
1:15 AM 46.4 °F - 28.4 °F 50% 30.20 in 10.0 mi Calm Calm - N/A   Clear
1:35 AM 41.0 °F - 26.6 °F 57% 30.20 in 10.0 mi Calm Calm - N/A   Clear
1:55 AM 42.8 °F - 28.4 °F 57% 30.20 in 10.0 mi Calm Calm - N/A   Clear
2:15 AM 42.8 °F - 26.6 °F 53% 30.20 in 10.0 mi Calm Calm - N/A   Clear
2:35 AM 42.8 °F - 28.4 °F 57% 30.20 in 10.0 mi Calm Calm - N/A   Clear
2:55 AM 37.4 °F - 24.8 °F 60% 30.20 in 10.0 mi Calm Calm - N/A   Clear
3:15 AM 39.2 °F - 28.4 °F 65% 30.20 in 10.0 mi Calm Calm - N/A   Clear
3:35 AM 37.4 °F - 26.6 °F 65% 30.20 in 10.0 mi Calm Calm - N/A   Clear
3:55 AM 39.2 °F - 26.6 °F 61% 30.20 in 10.0 mi Calm Calm - N/A   Clear
4:15 AM 35.6 °F - 24.8 °F 65% 30.20 in 10.0 mi Calm Calm - N/A   Clear
4:35 AM 35.6 °F - 24.8 °F 65% 30.20 in 10.0 mi Calm Calm - N/A   Clear
4:55 AM 35.6 °F 31.7 °F 26.6 °F 70% 30.20 in 10.0 mi NNW 4.6 mph - N/A   Clear
5:15 AM 39.2 °F - 28.4 °F 65% 30.20 in 10.0 mi Calm Calm - N/A   Clear
5:35 AM 33.8 °F 29.6 °F 24.8 °F 70% 30.20 in 10.0 mi NNW 4.6 mph - N/A   Clear
5:55 AM 33.8 °F 30.8 °F 24.8 °F 70% 30.21 in 10.0 mi North 3.5 mph - N/A   Clear
6:15 AM 39.2 °F 37.0 °F 28.4 °F 65% 30.21 in 10.0 mi NNW 3.5 mph - N/A   Clear
6:35 AM 33.8 °F 28.6 °F 26.6 °F 75% 30.22 in 10.0 mi NNW 5.8 mph - N/A   Clear
6:55 AM 39.2 °F - 28.4 °F 65% 30.22 in 10.0 mi Calm Calm - N/A   Clear
7:15 AM 41.0 °F - 28.4 °F 61% 30.22 in 10.0 mi Calm Calm - N/A   Clear
7:35 AM 48.2 °F - 30.2 °F 50% 30.23 in 10.0 mi Calm Calm - N/A   Clear
7:55 AM 51.8 °F - 30.2 °F 44% 30.23 in 10.0 mi SE 3.5 mph - N/A   Clear
8:15 AM 55.4 °F - 30.2 °F 38% 30.23 in 10.0 mi Calm Calm - N/A   Clear
8:35 AM 59.0 °F - 28.4 °F 31% 30.23 in 10.0 mi Calm Calm - N/A   Clear
8:55 AM 60.8 °F - 32.0 °F 34% 30.23 in 10.0 mi SE 4.6 mph - N/A   Clear
9:15 AM 62.6 °F - 32.0 °F 32% 30.23 in 10.0 mi SE 3.5 mph - N/A   Clear
9:35 AM 64.4 °F - 30.2 °F 28% 30.23 in 10.0 mi SE 3.5 mph - N/A   Clear
9:55 AM 66.2 °F - 28.4 °F 24% 30.23 in 10.0 mi Calm Calm - N/A   Clear
10:15 AM 68.0 °F - 28.4 °F 23% 30.23 in 10.0 mi Calm Calm - N/A   Clear
10:35 AM 68.0 °F - 28.4 °F 23% 30.23 in 10.0 mi East 6.9 mph - N/A   Clear
10:55 AM 69.8 °F - 26.6 °F 20% 30.23 in 10.0 mi ESE 10.4 mph - N/A   Clear
11:15 AM 69.8 °F - 26.6 °F 20% 30.22 in 10.0 mi ESE 11.5 mph - N/A   Clear
11:35 AM 71.6 °F - 23.0 °F 16% 30.22 in 10.0 mi ENE 8.1 mph 17.3 mph N/A   Clear
11:55 AM 73.4 °F - 23.0 °F 15% 30.22 in 10.0 mi ESE 11.5 mph 19.6 mph N/A   Clear
12:15 PM 73.4 °F - 23.0 °F 15% 30.21 in 10.0 mi East 10.4 mph - N/A   Clear
12:35 PM 73.4 °F - 23.0 °F 15% 30.21 in 10.0 mi ESE 10.4 mph - N/A   Clear
12:55 PM 73.4 °F - 23.0 °F 15% 30.21 in 10.0 mi ESE 11.5 mph - N/A   Clear
1:15 PM 75.2 °F - 23.0 °F 14% 30.20 in 10.0 mi ESE 11.5 mph 19.6 mph N/A   Clear
1:35 PM 75.2 °F - 23.0 °F 14% 30.20 in 10.0 mi SE 8.1 mph - N/A   Clear
1:55 PM 75.2 °F - 23.0 °F 14% 30.19 in 10.0 mi SSE 12.7 mph 21.9 mph N/A   Scattered Clouds
2:15 PM 77.0 °F - 23.0 °F 13% 30.19 in 10.0 mi East 11.5 mph 17.3 mph N/A   Scattered Clouds
2:35 PM 75.2 °F - 23.0 °F 14% 30.19 in 10.0 mi South 6.9 mph - N/A   Scattered Clouds
2:55 PM 75.2 °F - 26.6 °F 17% 30.19 in 10.0 mi NW 3.5 mph - N/A   Mostly Cloudy
3:15 PM 73.4 °F - 26.6 °F 18% 30.18 in 10.0 mi NW 6.9 mph 27.6 mph N/A   Mostly Cloudy
3:35 PM 75.2 °F - 26.6 °F 17% 30.18 in 10.0 mi WNW 13.8 mph 29.9 mph N/A   Mostly Cloudy
3:55 PM 77.0 °F - 26.6 °F 16% 30.18 in 10.0 mi WNW 12.7 mph 21.9 mph N/A   Mostly Cloudy
4:35 PM 75.2 °F - 28.4 °F 18% 30.18 in 10.0 mi West 23.0 mph 32.2 mph N/A   Scattered Clouds
4:55 PM 77.0 °F - 28.4 °F 17% 30.18 in 10.0 mi WNW 20.7 mph 27.6 mph N/A   Mostly Cloudy
5:15 PM 75.2 °F - 26.6 °F 17% 30.17 in 10.0 mi NE 3.5 mph 20.7 mph N/A   Mostly Cloudy
5:35 PM 75.2 °F - 30.2 °F 19% 30.18 in 10.0 mi SW 12.7 mph 24.2 mph N/A   Scattered Clouds
6:15 PM 73.4 °F - 30.2 °F 20% 30.17 in 10.0 mi SW 13.8 mph 25.3 mph N/A   Clear
6:35 PM 71.6 °F - 32.0 °F 23% 30.17 in 10.0 mi SW 12.7 mph 21.9 mph N/A   Clear
7:15 PM 66.2 °F - 32.0 °F 28% 30.18 in 10.0 mi WNW 8.1 mph 24.2 mph N/A   Clear
7:35 PM 66.2 °F - 32.0 °F 28% 30.18 in 10.0 mi Calm Calm - N/A   Clear
7:55 PM 64.4 °F - 30.2 °F 28% 30.19 in 10.0 mi NNW 8.1 mph - N/A   Clear
8:15 PM 62.6 °F - 30.2 °F 30% 30.20 in 10.0 mi Calm Calm - N/A   Clear
8:35 PM 62.6 °F - 32.0 °F 32% 30.20 in 10.0 mi East 4.6 mph - N/A   Clear
8:55 PM 60.8 °F - 32.0 °F 34% 30.21 in 10.0 mi Calm Calm - N/A   Clear
9:15 PM 60.8 °F - 32.0 °F 34% 30.22 in 10.0 mi Calm Calm - N/A   Clear
9:35 PM 57.2 °F - 30.2 °F 36% 30.24 in 10.0 mi Calm Calm - N/A   Clear
9:55 PM 53.6 °F - 32.0 °F 44% 30.23 in 10.0 mi Calm Calm - N/A   Clear
10:15 PM 51.8 °F - 28.4 °F 41% 30.23 in 10.0 mi Calm Calm - N/A   Clear
10:35 PM 51.8 °F - 30.2 °F 44% 30.24 in 10.0 mi Calm Calm - N/A   Clear
10:55 PM 51.8 °F - 32.0 °F 47% 30.24 in 10.0 mi Calm Calm - N/A   Clear
11:15 PM 51.8 °F - 32.0 °F 47% 30.24 in 10.0 mi Calm Calm - N/A   Clear
11:35 PM 51.8 °F - 32.0 °F 47% 30.24 in 10.0 mi Calm Calm - N/A   Clear
11:55 PM 48.2 °F - 32.0 °F 54% 30.24 in 10.0 mi Calm Calm - N/A   Clear